Regional Weather Roundup
Issued by NWS

Home | Current Version | Previous Version | Graphics & Text | Print | Product List | Glossary On
Versions: 1 2 3 4 5 6 7 8 9 10 11 12 13 14 15 16 17 18 19 20 21 22 23 24 25 26 27 28 29 30 31 32 33 34 35 36 37 38 39 40 41 42 43 44 45 46 47 48 49 50
000
ASUS43 KMPX 201201
RWRMN
WEATHER ROUNDUP FOR MINNESOTA
NATIONAL WEATHER SERVICE TWIN CITIES/CHANHASSEN MN
600 AM CST FRI JAN 20 2017


NOTE: "FAIR" INDICATES FEW OR NO CLOUDS BELOW 12,000 FEET WITH NO
SIGNIFICANT WEATHER AND/OR OBSTRUCTIONS TO VISIBILITY. N/A MEANS
CURRENT SKY AND/OR WEATHER CONDITIONS ARE NOT AVAILABLE.

MNZ060>063-068>070-201300-
   Twin Cities Metro

CITY           SKY/WX    TMP DP  RH WIND       PRES   REMARKS
TWIN CITIES    CLOUDY    35  33  92 SE7       29.63S FOG     WCI  29
6HR MIN TEMP:  35; 6HR MAX TEMP:  36; 6HR PCP:  0.09;

ST PAUL        CLOUDY    35  35 100 SE5       29.64S FOG     WCI  31
CRYSTAL        CLOUDY    36  33  89 SE7       29.61S FOG
BLAINE         CLOUDY    37  37 100 SE5       29.62S FOG
LAKEVILLE        N/A     34  34 100 E5        29.62S FOG     WCI  30
EDEN PRAIRIE   CLOUDY    35  34  96 SE6       29.61S FOG     WCI  30
6HR MIN TEMP:  35; 6HR MAX TEMP:  36; 6HR PCP:  0.01;

SOUTH ST PAUL  CLOUDY    35  35  99 CALM      29.63S FOG
LAKE ELMO      MIX PCPN  36  36 100 CALM      29.64S
$$
MNZ001>005-007-008-013>017-022>024-027-028-201300-
   Northwest Minnesota

CITY           SKY/WX    TMP DP  RH WIND       PRES   REMARKS
BEMIDJI        FOG       33  33 100 SE8       29.58F VSB 3/4 WCI  26
HALLOCK        FOG       36  34  93 S10       29.52F VSB 1
ROSEAU         CLOUDY    36  30  80 SE6       29.56F FOG
WARROAD        CLOUDY    34  30  86 SE6       29.58S FOG     WCI  29
THIEF RVR FALL CLOUDY    34  34 100 SE9       29.55F WCI  27
CROOKSTON      CLOUDY    34  34 100 SE10      29.54F FOG     WCI  26
FOSSTON        CLOUDY    34  34 100 E7        29.56S FOG     WCI  28
DETROIT LAKES  CLOUDY    34  34 100 SE10      29.57R FOG     WCI  26
MOORHEAD       CLOUDY    36  34  93 SE7       29.53F FOG
PARK RAPIDS    FOG       34  31  88 SE7       29.58R VSB 1   WCI  28
MAHNOMEN       CLOUDY    35  34  96 SE7       29.55S WCI  29
$$
MNZ006-009>011-018-025>026-201300-
   North Central Minnesota

CITY           SKY/WX    TMP DP  RH WIND       PRES   REMARKS
BAUDETTE       FOG       34  33  96 SE6       29.59S VSB 3/4 WCI  29
FLAG ISLAND    FOG       34  32  93 S6        29.57F VSB 1   WCI  29
INTL FALLS     CLOUDY    32  31  96 SE3       29.62S FOG
6HR MIN TEMP:  26; 6HR MAX TEMP:  38;

WASKISH        FOG       36  34  93 SE3       29.60S VSB 3/4
BIG FORK       CLOUDY    34  32  93 SE3       29.63R FOG
LONGVILLE      FOG       34  32  93 CALM      29.60S VSB 1/4
GRAND RAPIDS   CLOUDY    32  31  96 E3        29.63F FOG
CRANE LAKE     CLOUDY    30  30 100 CALM      29.66S FOG
ORR            CLOUDY    32  30  93 CALM      29.61F FOG
COOK           MOCLDY    30  28  93 CALM      29.64R FOG
WALKER         FOG       33  32  99 CALM      29.59F VSB 1/2
$$
MNZ012-019>021-037-201300-
   Northeast Minnesota

CITY           SKY/WX    TMP DP  RH WIND       PRES   REMARKS
DULUTH         CLOUDY    34  32  92 SE8       29.64R WCI  27
6HR MIN TEMP:  33; 6HR MAX TEMP:  36; 6HR PCP: TRACE;

ELY            FOG       21  21 100 CALM      29.64S VSB 1/4
HIBBING        CLOUDY    28  28 100 CALM      29.62S FOG
EVELETH        MOCLDY    22  21  95 CALM      29.64S FOG
DULUTH HARBOR  CLOUDY    34  32  93 CALM      29.68R FOG
TWO HARBORS    MOCLDY    30  27  86 CALM      29.64R HAZE
SILVER BAY     CLOUDY    27  27 100 CALM      29.65R FOG
GRAND MARAIS     N/A     30  29  96 NE5       29.70R WCI  25
G MARAIS ARPRT CLOUDY    21  18  86 N3        29.66R FOG
$$
MNZ029>031-032-039>041-046>048-054>057-064-201300-
   West Central Minnesota

CITY           SKY/WX    TMP DP  RH WIND       PRES   REMARKS
FERGUS FALLS   CLOUDY    36  36 100 SE8       29.59S FOG
WHEATON        CLOUDY    39  39 100 SE14      29.56S FOG
MORRIS         FOG       34  34 100 SE13      29.55S VSB 3/4 WCI  25
ALEXANDRIA     MIX PCPN  33  33 100 SE8       29.57F FOG     WCI  26
ELBOW LAKE     FOG       33  33 100 SE8       29.56S VSB 1   WCI  26
WADENA         MIX PCPN  32  32 100 SE5       29.57F VSB 1   WCI  27
GLENWOOD       MIX PCPN  34  34 100 SE9       29.57F VSB 3/4 WCI  26
APPLETON       CLOUDY    34  34 100 SE12      29.56S FOG     WCI  25
BENSON         CLOUDY    36  34  93 SE10        N/A
ORTONVILLE     FOG       34  30  86 E12       29.54S VSB 1/4 WCI  25
MADISON        CLOUDY    36  36 100 SE15      29.54F FOG
WILLMAR        CLOUDY    34  34 100 SE7       29.59F FOG     WCI  28
$$
MNZ033>034-036-042>043-049>051-058-059-201300-
   Central Minnesota

CITY           SKY/WX    TMP DP  RH WIND       PRES   REMARKS
ST CLOUD       CLOUDY    34  34 100 SE6       29.60F FOG     WCI  29
6HR MIN TEMP:  34; 6HR MAX TEMP:  34; 6HR PCP:  0.06;

SAUK CENTRE    LGT RAIN  32  32 100 SE6       29.59S WCI  27
PAYNESVILLE    DRIZZLE   33  33 100 SE7       29.59F WCI  27
AITKIN         MIX PCPN  37  34  87 CALM      29.60S VSB 3/4
PINE RIVER     DRZL/FOG  34  34 100 CALM      29.64S VSB 1/2
BRAINERD       FOG       34  34 100 S5        29.60F VSB 1   WCI  30
STAPLES        RAIN      34  34 100 CALM      29.59S
LONG PRAIRIE   MIX PCPN  32  32 100 E5        29.59F WCI  27
LITTLE FALLS   MIX PCPN  32  32 100 CALM      29.60F
LITCHFIELD     LGT RAIN  36  36 100 SE5       29.59F
BUFFALO        CLOUDY    34  33  96 SE3       29.62S FOG
MAPLE LAKE     DRIZZLE   35  35  99 MISG      29.61F
HUTCHINSON     FOG       34  34 100 SE3       29.60F VSB 1
$$
MNZ037-044-045-052-053-201300-
   East Central Minnesota

CITY           SKY/WX    TMP DP  RH WIND       PRES   REMARKS
PRINCETON      CLOUDY    36  34  93 CALM      29.62F FOG
MORA           FOG       34  32  93 CALM      29.64F VSB 1/2
CAMBRIDGE      LGT RAIN  37  32  81 SE3       29.61S
RUSH CITY      CLOUDY    34  34 100 E3        29.64S FOG
MOOSE LAKE     CLOUDY    36  32  87 CALM      29.61S FOG
HINCKLEY       RAIN      36  36 100 E6        29.64R
CLOQUET        MIX PCPN  34  30  86 E3        29.63R
MCGREGOR       CLOUDY    36  34  93 CALM      29.62S VSB 3/4
$$
MNZ071>073-080-081-089-090-097-098-201300-
   Southwest Minnesota

CITY           SKY/WX    TMP DP  RH WIND       PRES   REMARKS
MONTEVIDEO     CLOUDY    34  34 100 S8        29.59S FOG     WCI  27
GRANITE FALLS  CLOUDY    35  34  99 E10       29.58F FOG     WCI  27
CANBY          CLOUDY    35  35 100 E12       29.55S FOG     WCI  26
MARSHALL       CLOUDY    34  34 100 SE10      29.56S FOG     WCI  26
REDWOOD FALLS  CLOUDY    34  32  92 SE7       29.58F FOG     WCI  28
OLIVIA         CLOUDY    34  32  93 SE7       29.58F FOG     WCI  28
PIPESTONE      FOG       36  36 100 SE8       29.52R VSB 1/2
WINDOM         FOG       34  34 100 SE5       29.57F VSB 3/4 WCI  30
WORTHINGTON    FOG       34  33  96 E6          N/A  VSB 1/2 WCI  29
JACKSON        FOG       32  32 100 S8        29.58F VSB 3/4 WCI  25
TRACY          CLOUDY    35  35 100 SE6       29.56F FOG     WCI  30
SLAYTON        FOG       33  33 100 SE7       29.55F VSB 1/2 WCI  27
$$
MNZ065>067-074>077-082>085-091>093-201300-
   South Central Minnesota

CITY           SKY/WX    TMP DP  RH WIND       PRES   REMARKS
MANKATO        CLOUDY    34  33  96 S9        29.60F FOG     WCI  27
NEW ULM        CLOUDY    34  34 100 SE7       29.59F FOG     WCI  28
ST JAMES       CLOUDY    34  34 100 SE6       29.60F FOG     WCI  29
FAIRMONT       CLOUDY    33  33 100 SE8       29.60S FOG     WCI  26
GLENCOE        CLOUDY    35  35 100 SE3       29.59F FOG
FARIBAULT      DRIZZLE   34  34 100 SE3       29.61F
OWATONNA       CLOUDY    36  34  93 SE7       29.61S FOG
WASECA         CLOUDY    34  34 100 S6        29.62S FOG     WCI  29
ALBERT LEA     FOG       34  34 100 S6        29.60S VSB 1   WCI  29
$$
MNZ078>079-086>088-094>096-201300-
   Southeast Minnesota

CITY           SKY/WX    TMP DP  RH WIND       PRES   REMARKS
ROCHESTER      CLOUDY    33  33 100 SE8       29.62S FOG     WCI  26
6HR MIN TEMP:  33; 6HR MAX TEMP:  34;

RED WING       CLOUDY    36  34  93 SE6       29.63S FOG
STANTON        CLOUDY    36  33  91 CALM      29.61S FOG
DODGE CENTER   CLOUDY    34  34 100 CALM      29.61S FOG
WINONA         CLOUDY    34  34 100 CALM      29.66S FOG
AUSTIN         FOG       34  32  93 CALM      29.61S VSB 1
PRESTON        CLOUDY    33  32  96 SE7       29.63S FOG     WCI  27
$$
ABBREVIATIONS USED IN REMARKS
   TC - TEMPERATURES IN CELSIUS
  WCI - WIND CHILL INDEX
   HX - HEAT INDEX
  VSB - VISIBILITY
$$




USA.gov is the U.S. government's official web portal to all federal, state and local government web resources and services.